sat.trackr.live / text

‹ back to catalog

STARLINK-35327

NORAD 66439 · 2025-259T

PAYLOAD ACTIVE UNKNOWN

§ Identity

Operator
Country
US
Launch date
2025-11-11
Launch site
AFETR
Launch vehicle
Mass (kg)
RCS (m²)

Purposes: comms

External: N2YO · Heavens-Above · Gunter

§ Orbital elements

Epoch: 2026-09-20T07:56:18.049344Z

Period
94.27 min
Inclination
42.9992°
Eccentricity
0.0001126
Mean motion
15.27589161 rev/d
Perigee alt
482.2 km
Apogee alt
483.8 km
Semi-major
6,861.2 km
B*
2.9425e-4
RAAN
254.7249°
Arg perigee
275.0108°
Mean anomaly
85.0615°
Rev number
4,926

§ Raw data

STARLINK-353271 66439U 25259T   26263.33076446  .00007846  00000+0  29425-3 0  99922 66439  42.9992 254.7249 0001126 275.0108  85.0615 15.27589161 49262

JSON: /api/v1/satellites/66439 · /tle

For live sub-satellite position, see the globe view (requires WebGL).

§ Visibility from observer

Set your observer location to see the next 7 days of passes ≥ 10°. The values pass through the URL so the page stays shareable.

No JS? Fill the form by hand. The geolocation button needs JavaScript.